View from above orbital plane
|
View from above satellite
|
Ground track
|
The orbit data is extracted from the following two-line orbital elements,
1 31702U 07027B 21108.93641939 0.00000300 00000-0 55252-4 0 04
2 31702 63.3482 91.7997 0433883 18.7307 341.2693 14.18910845 07
Epoch (UTC): | 18 April 2021 22:28:26 |
Eccentricity: | 0.0433883 |
inclination: | 63.3482° |
perigee height: | 516 km |
apogee height: | 1142 km |
right ascension of ascending node: | 91.7997° |
argument of perigee: | 18.7307° |
revolutions per day: | 14.18910845 |
mean anomaly at epoch: | 341.2693° |
orbit number at epoch: | 0 |
The dashed part of the orbit path shows where the satellite is in the earth's shadow,
|
|